Home > Weather > Bamyan > Past weeks

Flag for Afghanistan Past Weather in Bamyan, Afghanistan — Yesterday and Last 2 Weeks

Now
75 °F

Sunny.


Feels Like: 77 °F
Forecast: 53 / 75 °F
Wind: 5 mph from Northwest

Location: Termez Airport

Current Time: Jul 2, 2016 at 6:33:26 AM

Latest Report: Jul 2, 2016 at 5:30 AM


Visibility: 10 mi

Pressure: 29.50 "Hg (22.15 "Hg at 2492m altitude)

Humidity: 39%

Dew Point: 48 °F

Location of BamyanLocation

Past Weather in Bamyan — Graph

°F

Bamyan Temperature Yesterday

Maximum temperature yesterday: 104 °F (at 1:00 PM)
Minimum temperature yesterday: 73 °F (at 3:30 AM)
Average temperature yesterday: 91 °F

High & Low Weather Summary for the Past Weeks

 TemperatureHumidityPressure
High104 °F (Jun 19, 2:30 PM)68% (Jun 17, 4:30 AM)29.98 "Hg (Jun 17, 4:30 AM)
Low64 °F (Jun 23, 4:00 AM)9% (Jun 19, 2:30 PM)29.47 "Hg (Jul 1, 4:00 PM)
Average86 °F28%29.75 "Hg
* Reported Jun 17 4:30 AM — Jul 2 5:00 AM, Bamyan, Weather by CustomWeather, © 2016

Note: Actual official high and low records may vary slightly from our data, if they occured in-between our weather recording intervals... More about our weather records

Advertising

Bamyan Weather History for the Previous 24 Hours

Scroll right to see more
 ConditionsComfort  
Time TempWeatherWind HumidityBarometerVisibility
5:00 AM
Sat, Jul 2
75 °FSunny.5 mph39%29.50 "Hg10 mi
4:30 AM73 °FClear.3 mph53%29.50 "Hg10 mi
3:30 AM73 °FClear.1 mph53%29.50 "Hg10 mi
3:00 AM73 °FClear.2 mph50%29.47 "Hg10 mi
2:30 AM73 °FClear.2 mph50%29.47 "Hg10 mi
1:30 AM75 °FClear.2 mph44%29.47 "Hg10 mi
12:30 AM77 °FClear.6 mph47%29.47 "Hg10 mi
11:30 PM
Fri, Jul 1
81 °FPassing clouds.5 mph37%29.47 "HgN/A
10:30 PM86 °FClear.6 mph31%29.47 "Hg10 mi
10:00 PM88 °FClear.6 mph29%29.47 "Hg10 mi
9:30 PM90 °FClear.7 mph26%29.47 "Hg10 mi
9:00 PM88 °FPassing clouds.5 mph31%29.47 "HgN/A
8:30 PM90 °FClear.3 mph31%29.47 "Hg10 mi
8:00 PM91 °FClear.2 mph28%29.47 "Hg10 mi
7:30 PM95 °FClear.2 mph23%29.47 "Hg10 mi
7:00 PM97 °FSunny.2 mph28%29.47 "Hg10 mi
6:30 PM97 °FSunny.5 mph23%29.47 "Hg10 mi
6:00 PM100 °FSunny.5 mph20%29.47 "Hg10 mi
5:30 PM100 °FSunny.8 mph15%29.47 "Hg10 mi
5:00 PM102 °FPassing clouds.8 mph13%29.47 "HgN/A
4:30 PM104 °FSunny.8 mph13%29.47 "Hg10 mi
4:00 PM104 °FSunny.9 mph12%29.47 "Hg10 mi
3:30 PM104 °FSunny.10 mph12%29.50 "Hg10 mi
3:00 PM104 °FPassing clouds.9 mph12%29.50 "HgN/A
2:30 PM104 °FSunny.12 mph9%29.53 "Hg10 mi
2:00 PM104 °FPassing clouds.8 mph13%29.53 "HgN/A
1:30 PM104 °FPassing clouds.7 mph13%29.53 "HgN/A
1:00 PM104 °FPassing clouds.7 mph16%29.56 "HgN/A
12:30 PM102 °FPassing clouds.5 mph18%29.56 "HgN/A
12:00 PM100 °FPassing clouds.7 mph14%29.56 "HgN/A
11:30 AM99 °FPassing clouds.7 mph19%29.59 "HgN/A
11:00 AM99 °FSunny.7 mph17%29.59 "Hg10 mi
10:30 AM97 °FPassing clouds.8 mph20%29.59 "HgN/A
10:00 AM95 °FSunny.9 mph16%29.59 "Hg10 mi
9:30 AM93 °FSunny.10 mph20%29.62 "Hg10 mi
9:00 AM91 °FSunny.9 mph21%29.62 "Hg10 mi
8:30 AM88 °FSunny.7 mph25%29.62 "Hg10 mi
8:00 AM86 °FPassing clouds.7 mph33%29.62 "HgN/A
7:30 AM82 °FSunny.8 mph32%29.62 "Hg10 mi
7:00 AM81 °FSunny.5 mph37%29.62 "Hg10 mi
6:30 AM81 °FSunny.No wind30%29.62 "Hg10 mi
6:00 AM77 °FSunny.No wind39%29.62 "Hg10 mi
Weather by CustomWeather, © 2016

See weather overviewHow to use our weather pages